Погода в Селе Санатория Глуховского

Россия / Республика Башкортостан     53°59′42″N   54°20′01″E
темп.,
°C
ветер,
м/с
пор.,
м/с
влажн.,
%
обл.,
%
осадки,
мм/ч
давл.,
гПа
погр.,
м
18 мая, вт
вт1823:00+20вюв22475 0.0 101813
02:00+19з11382 0.0 101711
05:00+18ююз11466 0.0 101711
08:00+21з23435 0.0 1017108
11:00+26сз33325 0.0 1017605
14:00+28ссз443238 0.0 10161814
17:00+28ссз34335 0.0 10162431
20:00+23ссв5105673 0.1 1016342
19 мая, ср
ср1923:00+18св5127282 0.9 1017270
02:00+16св512730 0.0 1017249
05:00+14св411810 0.0 1017206
08:00+16в58740 0.0 1018313
11:00+21в67590 0.0 1018818
14:00+23в67470 0.0 10191490
17:00+24в66440 0.0 10191757
20:00+21вюв365768 0.0 1019165
20 мая, чт
чт2023:00+17вюв396095 0.0 1020173
02:00+14юв311625 0.0 1021234
05:00+12вюв3106594 0.0 1021192
08:00+15юв41060100 0.0 1022361
11:00+19юв684687 0.0 10211139
14:00+21юв78380 0.0 10201659
17:00+22юв79361 0.0 10192078
20:00+19юв410520 0.0 1018300
21 мая, пт
пт2123:00+15вюв4105780 0.0 1017181
02:00+15вюв51352100 0.0 1016393
05:00+14юв4115781 0.0 1017368
08:00+16ююв496490 0.0 1017423
11:00+20ю686390 0.0 10171208
14:00+22ю5850100 0.6 10172007
17:00+20зюз5755100 0.7 1018829
20:00+18зюз3564100 0.0 1019236
22 мая, сб
сб2223:00+15юз22720 0.0 102019
02:00+13юз228172 0.0 102115
05:00+13юз1185100 0.0 102211
08:00+17юз237018 0.0 1022215
11:00+21юз3453100 0.0 10231246
14:00+23юз33445 0.0 10221574
17:00+24юз334166 0.0 10221875
20:00+22ююв2256100 0.0 102120